LAN603 KLAX-SCEL

Flight info

Callsign LAN603
Flight time N/A
Altitude 35000
Route PNDAH2 OTAYY DCT TIJ UT4 LMM UJ3 MZT UJ12 GDL UJ3 ALIPO/N0492F370 UJ3 ACA UL344 POGAM UL401 ILVOS/N0485F390 UL401 VTN UT101 TBN
Aircraft B789/H-SDE1E2E3FGHIJ2J3J4J5M1RWXY/LB1D1

Departure

Time 2026-04-23 02:15
Airport Los Angeles International Airport (KLAX)

Arrival

Time N/A
Airport Comodoro Arturo Merino Benítez International Airport (SCEL)
Time Latitude Longitude Altitude Speed Heading
2026-04-23 01:54 33.94019 -118.41092 131 ft 0 kts 83°
2026-04-23 02:01 33.94018 -118.41105 125 ft 2 kts 83°
2026-04-23 02:01 33.94016 -118.41124 129 ft 2 kts 83°
2026-04-23 02:01 33.94016 -118.41144 126 ft 2 kts 101°
2026-04-23 02:02 33.94021 -118.41163 128 ft 2 kts 118°
2026-04-23 02:02 33.94031 -118.41178 125 ft 2 kts 137°
2026-04-23 02:02 33.94045 -118.41189 128 ft 2 kts 160°
2026-04-23 02:02 33.94051 -118.41191 126 ft 0 kts 171°
2026-04-23 02:06 33.94050 -118.41191 126 ft 0 kts 171°
2026-04-23 02:06 33.94046 -118.41191 127 ft 1 kts 172°
2026-04-23 02:06 33.94040 -118.41190 125 ft 1 kts 172°
2026-04-23 02:07 33.94030 -118.41188 125 ft 2 kts 173°
2026-04-23 02:07 33.94017 -118.41186 126 ft 2 kts 173°
2026-04-23 02:07 33.94001 -118.41184 128 ft 3 kts 173°
2026-04-23 02:07 33.93973 -118.41180 128 ft 5 kts 174°
2026-04-23 02:08 33.93927 -118.41174 128 ft 8 kts 174°
2026-04-23 02:08 33.93857 -118.41165 128 ft 12 kts 174°
2026-04-23 02:08 33.93777 -118.41148 127 ft 7 kts 147°
2026-04-23 02:08 33.93766 -118.41103 129 ft 8 kts 91°
2026-04-23 02:09 33.93776 -118.41002 131 ft 16 kts 83°
2026-04-23 02:09 33.93791 -118.40854 131 ft 20 kts 83°
2026-04-23 02:09 33.93809 -118.40682 129 ft 21 kts 84°
2026-04-23 02:09 33.93826 -118.40513 126 ft 20 kts 83°
2026-04-23 02:10 33.93843 -118.40346 131 ft 20 kts 83°
2026-04-23 02:10 33.93860 -118.40184 130 ft 19 kts 83°
2026-04-23 02:10 33.93876 -118.40027 131 ft 19 kts 83°
2026-04-23 02:10 33.93892 -118.39868 130 ft 19 kts 83°
2026-04-23 02:11 33.93908 -118.39707 128 ft 19 kts 83°
2026-04-23 02:11 33.93925 -118.39543 129 ft 20 kts 83°
2026-04-23 02:11 33.93941 -118.39380 126 ft 20 kts 83°
2026-04-23 02:11 33.93958 -118.39213 130 ft 20 kts 83°
2026-04-23 02:12 33.93976 -118.39047 131 ft 20 kts 82°
2026-04-23 02:12 33.93993 -118.38883 131 ft 20 kts 83°
2026-04-23 02:12 33.94010 -118.38713 127 ft 20 kts 83°
2026-04-23 02:12 33.94028 -118.38545 128 ft 20 kts 83°
2026-04-23 02:13 33.94044 -118.38379 129 ft 20 kts 83°
2026-04-23 02:13 33.94060 -118.38219 131 ft 19 kts 83°
2026-04-23 02:13 33.94072 -118.38089 131 ft 12 kts 83°
2026-04-23 02:13 33.94067 -118.38026 126 ft 2 kts 144°
2026-04-23 02:14 33.94039 -118.38005 126 ft 7 kts 158°
2026-04-23 02:14 33.93988 -118.38021 126 ft 9 kts 238°
2026-04-23 02:14 33.93969 -118.38182 129 ft 35 kts 264°
2026-04-23 02:14 33.93914 -118.38709 130 ft 93 kts 263°
2026-04-23 02:15 33.93668 -118.41128 272 ft 186 kts 265°
2026-04-23 02:15 33.93507 -118.42691 1187 ft 190 kts 263°
2026-04-23 02:15 33.93331 -118.44262 2073 ft 197 kts 264°
2026-04-23 02:16 33.93050 -118.45998 2221 ft 228 kts 247°
2026-04-23 02:16 33.91999 -118.47602 2496 ft 253 kts 232°
2026-04-23 02:16 33.90892 -118.49264 3282 ft 257 kts 231°
2026-04-23 02:16 33.89693 -118.50874 3974 ft 262 kts 233°
2026-04-23 02:17 33.88561 -118.52625 4753 ft 268 kts 233°
2026-04-23 02:17 33.87340 -118.54405 4992 ft 282 kts 227°
2026-04-23 02:17 33.85700 -118.55615 4997 ft 280 kts 199°
2026-04-23 02:17 33.83772 -118.55855 5006 ft 282 kts 172°
2026-04-23 02:18 33.81832 -118.55398 5151 ft 284 kts 168°
2026-04-23 02:18 33.79922 -118.54843 5987 ft 284 kts 168°
2026-04-23 02:18 33.77997 -118.54303 6709 ft 288 kts 169°
2026-04-23 02:18 33.76026 -118.53780 7471 ft 290 kts 170°
2026-04-23 02:19 33.74028 -118.53249 8201 ft 294 kts 171°
2026-04-23 02:19 33.72025 -118.52705 8948 ft 297 kts 170°
2026-04-23 02:19 33.70710 -118.52142 9380 ft 306 kts 150°
2026-04-23 02:19 33.68706 -118.49719 10208 ft 321 kts 120°
2026-04-23 02:20 33.67633 -118.47234 10266 ft 348 kts 118°
2026-04-23 02:20 33.66481 -118.44550 10366 ft 372 kts 118°
2026-04-23 02:20 33.65308 -118.41802 11049 ft 375 kts 118°
2026-04-23 02:20 33.64099 -118.38988 11615 ft 381 kts 118°
2026-04-23 02:21 33.62865 -118.36134 12229 ft 387 kts 118°
2026-04-23 02:21 33.61612 -118.33229 12813 ft 392 kts 118°
2026-04-23 02:21 33.60365 -118.30334 13405 ft 397 kts 118°
2026-04-23 02:21 33.59080 -118.27354 14005 ft 403 kts 118°
2026-04-23 02:22 33.57780 -118.24347 14577 ft 406 kts 118°
2026-04-23 02:22 33.56483 -118.21350 15134 ft 410 kts 119°
2026-04-23 02:22 33.55165 -118.18302 15689 ft 413 kts 119°
2026-04-23 02:22 33.53826 -118.15213 16257 ft 416 kts 120°
2026-04-23 02:23 33.52485 -118.12108 16790 ft 420 kts 120°
2026-04-23 02:23 33.51158 -118.09013 17336 ft 423 kts 120°
2026-04-23 02:23 33.49805 -118.05861 17870 ft 426 kts 120°
2026-04-23 02:23 33.48434 -118.02684 18410 ft 429 kts 120°
2026-04-23 02:24 33.46939 -117.99589 18846 ft 427 kts 133°
2026-04-23 02:24 33.44924 -117.96998 19290 ft 422 kts 144°
2026-04-23 02:24 33.42737 -117.94671 19701 ft 426 kts 143°
2026-04-23 02:24 33.40504 -117.92301 20155 ft 428 kts 144°
2026-04-23 02:25 33.38255 -117.89920 20596 ft 431 kts 144°
2026-04-23 02:25 33.36004 -117.87532 21031 ft 433 kts 144°
2026-04-23 02:25 33.33759 -117.85149 21449 ft 436 kts 144°
2026-04-23 02:25 33.31479 -117.82733 21868 ft 438 kts 144°
2026-04-23 02:26 33.29207 -117.80330 22281 ft 441 kts 144°
2026-04-23 02:26 33.26891 -117.77880 22674 ft 444 kts 144°
2026-04-23 02:26 33.24563 -117.75418 23069 ft 446 kts 144°
2026-04-23 02:26 33.22252 -117.72977 23468 ft 449 kts 144°
2026-04-23 02:27 33.19897 -117.70492 23811 ft 452 kts 144°
2026-04-23 02:27 33.17526 -117.67992 24108 ft 454 kts 144°
2026-04-23 02:27 33.15171 -117.65433 24397 ft 459 kts 142°
2026-04-23 02:27 33.12867 -117.62835 24673 ft 461 kts 143°
2026-04-23 02:28 33.10492 -117.60240 24973 ft 463 kts 143°
2026-04-23 02:28 33.08110 -117.57610 25258 ft 466 kts 143°
2026-04-23 02:28 33.05761 -117.54975 25537 ft 469 kts 143°
2026-04-23 02:28 33.03367 -117.52300 25830 ft 471 kts 143°
2026-04-23 02:29 33.00952 -117.49630 26106 ft 474 kts 143°
2026-04-23 02:29 32.98550 -117.46976 26388 ft 476 kts 143°
2026-04-23 02:29 32.96693 -117.44914 26604 ft 479 kts 143°
2026-04-23 02:29 32.94218 -117.42165 26890 ft 482 kts 143°
2026-04-23 02:30 32.91741 -117.39423 27183 ft 484 kts 144°
2026-04-23 02:30 32.89284 -117.36711 27457 ft 487 kts 144°
2026-04-23 02:30 32.87627 -117.34880 27651 ft 489 kts 144°
2026-04-23 02:30 32.84262 -117.31162 28018 ft 493 kts 144°
2026-04-23 02:31 32.81763 -117.28403 28325 ft 496 kts 144°
2026-04-23 02:31 32.79210 -117.25590 28614 ft 499 kts 144°
2026-04-23 02:31 32.76646 -117.22766 28897 ft 502 kts 144°
2026-04-23 02:31 32.74100 -117.19963 29179 ft 505 kts 144°
2026-04-23 02:32 32.71507 -117.17112 29459 ft 509 kts 144°
2026-04-23 02:32 32.68895 -117.14243 29739 ft 512 kts 144°
2026-04-23 02:32 32.66279 -117.11320 29982 ft 518 kts 139°
2026-04-23 02:32 32.64658 -117.09204 30141 ft 523 kts 139°
2026-04-23 02:33 32.62207 -117.05968 30391 ft 526 kts 139°
2026-04-23 02:33 32.59743 -117.02728 30630 ft 529 kts 139°
2026-04-23 02:33 32.57292 -116.99524 30890 ft 531 kts 139°
2026-04-23 02:33 32.54799 -116.96266 31176 ft 533 kts 139°
2026-04-23 02:34 32.52283 -116.92983 31423 ft 536 kts 140°
2026-04-23 02:34 32.49733 -116.89747 31681 ft 537 kts 140°
2026-04-23 02:34 32.47189 -116.86554 31939 ft 540 kts 140°
2026-04-23 02:34 32.44618 -116.83280 32177 ft 543 kts 140°
2026-04-23 02:35 32.42039 -116.79970 32441 ft 545 kts 140°
2026-04-23 02:35 32.39473 -116.76704 32690 ft 548 kts 140°
2026-04-23 02:35 32.36855 -116.73400 32944 ft 550 kts 140°
2026-04-23 02:35 32.34228 -116.70075 33185 ft 553 kts 140°
2026-04-23 02:36 32.31632 -116.66774 33399 ft 555 kts 140°
2026-04-23 02:36 32.28986 -116.63419 33643 ft 558 kts 140°
2026-04-23 02:36 32.26323 -116.60057 33905 ft 559 kts 140°
2026-04-23 02:36 32.23645 -116.56679 34068 ft 562 kts 140°
2026-04-23 02:37 32.20999 -116.53333 34275 ft 564 kts 140°